РПИ Новосибирск

Общая информация

Региональный центр Новосибирск (РегЦ Новосибирск) входит в организационно-территориальную структуру дивизиона VATRUS международной сети VATSIM и является оперативным органом единой системы организации воздушного движения дивизиона VATRUS.

РегЦ Новосибирск осуществляет свою деятельность в воздушном пространстве над территориями 6 субъектов Российской Федерации, общая площадь территории которых составляет около 1 млн кв. км. Зона ответственности РегЦ Новосибирск покрывает Республику Алтай, Алтайский край, Новосибирскую, Кемеровскую, Омскую и Томскую области.

Воздушное пространство зоны ответственности РегЦ Новосибирск граничит с районами ОВД Монголии, Республики Казахстан и Китайской Народной Республики. Авиационные магистрали, проходящие через зону ответственности РегЦ Новосибирск, связывают Западную Европу с Юго-Восточной Азией, Северную Америку с Южной Азией.

Общая протяженность воздушных трасс составляет более 40 тысяч километров, в том числе более 130 международных участков с десятью воздушными коридорами на границе сопредельных государств (Казахстан, Китай, Монголия).

В зоне ответственности РегЦ Новосибирск расположены аэродромы таких городов, как Барнаул, Горно-Алтайск, Кемерово, Новокузнецк, Новосибирск, Омск, Стрежевой, Томск.

Коды ВОРЛ (район применения ICAO EUR-G)

Барнаул (Михайловка) 5250-5253, 5260-5264

Горно-Алтайск 5265-5267

Кемерово 5301-5305

Новокузнецк (Спиченково) 5306-5311

Новосибирск (Толмачёво) 5201-5230, 5270-5275

Новосибирск (Ельцовка) 5316-5317

Омск (Центральный) 5440-5461

Стрежевой 5276-5277

Томск (Богашево) 5254-5257, 5312-5315, 5462-5467

РЕЗЕРВ РЦ ЕС ОрВД 5231-5247

Средства связи ОВД

UNNT_CTR - Новосибирск-Контроль - 127.000

Публичные ресурсы РПИ Новосибирск

ВКонтакте - http://vk.com/unnt_fir

Discord - https://discord.gg/unnt

Контакты администрации РПИ Новосибирск

Fir-unnt@yandex.ru

Лого Новосибирск
Руководство

Mikhail Gogolev

Начальник РегЦ ЕС ОрВД (Новосибирск)

Andrey Morozov

заместитель начальника РегЦ Новосибирск

Mark Kalashnikov

начальник пресс-службы
Контакты

Инструкторы РПИ
Aleksey Nevzorov (Instructor)
Alexandr Khodyrev (Instructor)
Andrey Morozov (Instructor)
Dmitriy Kabushev * (Controller)
Kirill Ivanov * (Controller)
Mikhail Gogolev (Instructor)
Sergey Arkasov (Instructor)
Входит в состав
Сибирь

Диспетчеры РПИ

Диспетчер Рейтинг Допуски *
Aleksey Nevzorov Instructor UNNT_CTR
Alexei Gladilin Controller UNNT_CTR
Alexey Arkasov Controller UNNT_CTR
Andrey Morozov Instructor UNNT_CTR
Artem Smychkov Instructor UNNT_CTR
Dmitriy Kabushev Controller UNNT_CTR
Ivan Chokenyuk Controller UNNT_CTR
Ivan Kobka Controller UNNT_CTR
Kirill Ivanov Controller UNNT_CTR
Kirill Shabunin Senior Controller UNNT_CTR
Mikhail Gogolev Instructor UNNT_CTR
Sergey Arkasov Instructor UNNT_CTR
Tigran Areian Controller UNNT_CTR
Timofey Abramchuck Senior Student UNNT_CTR  *, UNEE_APP, UNNT_TWR, UNOO_APP
Alexander Sharonov Student UNNT_GND
Alexander Veretentsev Student 2 UNEE_TWR!!!, UNNT_R_APP*, UNOO_TWR
Alexandr Andreev Student UNNT_GND
Alexandr Belyakov Student 2 UNEE_TWR!!!
Alexandr Nikolaev Student UNNT_GND
Anatoly Margach Student UNNT_GND
Andrey Guz Student UNNT_TWR*, UNNT_GND
Andrey Mikhaylov Student UNNT_TWR*, UNOO_GND
Arseniy Kucheev Student 2 UNBG_TWR, UNEE_TWR, UNNT_TWR, UNNT_R_APP*, UNOO_TWR, UNWW_TWR
Arseny Epikhin Student 2 UNNT_TWR
Artem Glinchikov Student UNNT_TWR*, UNNT_GND
Artem Ponomarov Student 2 UNNT_R_APP*
Artem Tsendrovsky Senior Student UNNT_APP, UNOO_APP
Artemiy Golushcov Student UNNT_GND, UNOO_GND
Artyom Shinkevich Student UNNT_GND
Ayaz Gadilshin Student UNNT_GND
Bogdan Mavrodiev Student UNNT_GND
Boris Yakunin Senior Student UNNT_APP
Daniil Bulavin Student UNNT_GND
Daniil Gargalyk Student UNNT_GND
Daniil Platonov Student UNNT_GND
Danil Yazvitskiy Student UNNT_GND
Dmitriy Yanov Student UNNT_GND
Egor Beletsky Student 2 UNNT_TWR
Egor Filippov Student UNNT_TWR*, UNNT_GND
Egor Panov Student UNNT_GND
Egor Rykov Student UNNT_GND
Egor Sarin Student UNNT_GND
Egor Vasilev Student UNNT_GND
Evgeny Listratov Senior Student UNNT_APP, UNOO_APP
Georgi Denisov Student UNNT_GND
Igor Murashkin Student UNNT_GND
Ilia Lobanov Student UNNT_GND
Ilia Vasilev Student UNNT_GND
Ilya Kopylov Student UNNT_TWR*
Kirill Khan Student UNNT_GND
Kirill Shishkin Student UNNT_TWR*, UNNT_GND
Klim Pravdin Student UNNT_TWR*, UNNT_GND
Konstantin Bednov Student 2 UNNT_TWR, UNOO_TWR
Maksim Shemelin Student 2 UNNT_TWR
Maksim Tretyakov Student 2 UNNT_R_APP*, UNNT_TWR
Mark Kalashnikov Senior Student UNNT_APP, UNOO_APP, UNTT_TWR
Mark Marisov Student 2 UNNT_APP*
Matvei Korshunov Student UNNT_GND
Matvei Shatov Student UNNT_GND, UNOO_GND
Matvey Skuratov Student UNNT_GND
Maxim Ivanishchev Senior Student UNNT_APP
Mikhail Arkasov Student UNNT_GND
Mikhail Pompushko Senior Student UNBG_TWR, UNNT_APP, UNSS_R_APP, UNWW_APP
Mikhail Shishkin Student UNNT_GND
Mikhail Shorokhov Student UNNT_GND
Misha Mishcenko Student UNNT_GND
Nikita Krendelev Student UNNT_GND
Nikita Razumov Student 2 UNNT_TWR, UNOO_GND
Rinal Shakirov Student UNNT_GND
Roman Askerov Student UNNT_GND
Roman Elsukov Student UNNT_GND
Sergei Stach Student UNNT_GND
Sergey Milyaev Student UNNT_GND
Sergey Samartsev Student UNNT_GND
Timofei Degtyar Student 2 UNNT_TWR, UNOO_TWR
Timur Sorov Student 2 UNBB_TWR, UNNT_TWR, UNNT_R_APP*
Vadim Kostromskiy Student UNNT_GND
Valerii Diakov Student 2 UNWW_TWR
vlad vartanov Student UNNT_GND
Yaroslav Akhmanaev Student UNNT_GND
Yaroslav Vasilyev Student 2 UNNT_TWR

Аэропорты РПИ

ICAO Город Название Погода
UNBB Барнаул Барнаул UNBB 200600Z 21002MPS 9999 FEW040 22/14 Q1003 R24/CLRD66 NOSIG RMK QFE730
UNBG Горно-Алтайск Горно-Алтайск
UNEE Кемерово Кемерово UNEE 200600Z 25006MPS 9999 BKN012 20/19 Q1001 R23/////// NOSIG RMK QFE728
UNWW Новокузнецк Новокузнецк UNWW 200600Z 27003MPS 230V320 9999 SCT043 25/17 Q1003 R19/09//55 NOSIG RMK QFE725
UNNT Новосибирск Новосибирск UNNT 200600Z 27003MPS 9999 BKN034 23/16 Q1001 R25/090070 R34/////// NOSIG RMK QFE741/0988
UNOO Омск Омск UNOO 200600Z 26004MPS 220V290 9999 SCT033 23/14 Q0999 R25/CLRD60 NOSIG RMK QFE741
UNSS Стрежевой Стрежевой
UNTT Томск Томск UNTT 200600Z 28003MPS 9999 BKN012 BKN023CB 20/18 Q1000 R21/190055 NOSIG RMK QFE734